Club Med II — FNIR — position and weather

sailwx.info

Track history (hours):
 
Tides and Currents Weather Stations Pressure Air Temp Water Temp Dewpoint Dewpoint Depression Visibility Wind Speed Wind Dir Waves Ship Positions

Club Med II

Operator: V.Ships Leisure S.A.M

Last reported at 2017-Jul-21 02:30 UTC. Time now 2017-Jul-21 02:29 UTC.
Position N 36°20' E 014°38'.

Length 187 m; draft 5.2 m.

Type: Ship. MMSI: 227194000.

Date/timePositionNaut miles runAvg speedWind from/ knotsBaromVisibWave heightAir tempDewpointWater temp
2017-Jul-21 02:30N 36°20' E 014°38'511.1
2017-Jul-21 02:00N 36°23' E 014°44'611.1
2017-Jul-21 01:30N 36°26' E 014°50'511.0
2017-Jul-21 01:00N 36°29' E 014°56'610.8
2017-Jul-21 00:30N 36°32' E 015°01'510.9
2017-Jul-21 00:00N 36°35' E 015°07'811.4
2017-Jul-20 23:15N 36°41' E 015°15'311.7
2017-Jul-20 23:00N 36°44' E 015°17'55 2.0
2017-Jul-19 19:12N 37°38' E 015°28'1 5.9
2017-Jul-19 18:58N 37°39' E 015°27'3 5.8
2017-Jul-19 18:30N 37°41' E 015°25'3 5.7
2017-Jul-19 18:00N 37°43' E 015°23'20 1.4
2017-Jul-19 04:00N 38°02' E 015°30'510.7
2017-Jul-19 03:30N 38°07' E 015°33'5 9.7
2017-Jul-19 03:00N 38°11' E 015°36'510.0
2017-Jul-19 02:30N 38°15' E 015°39'5 9.6
2017-Jul-19 01:58N 38°21' E 015°39'4 8.7
2017-Jul-19 01:29N 38°24' E 015°36'4 8.9
2017-Jul-19 01:00N 38°28' E 015°34'5 9.8
2017-Jul-19 00:30N 38°33' E 015°31'5 9.9
2017-Jul-19 00:00N 38°37' E 015°28'8 9.9
2017-Jul-18 23:12N 38°44' E 015°23'21 3.1
2017-Jul-18 16:25N 38°32' E 015°01'510.6
2017-Jul-18 15:59N 38°28' E 014°58'0 0.3
2017-Jul-18 15:05N 38°28' E 014°58'0 0.1
2017-Jul-18 14:53N 38°28' E 014°58'0 0.0
2017-Jul-18 13:53N 38°28' E 014°58'0 0.0
2017-Jul-18 10:35N 38°28' E 014°58'0 0.0
2017-Jul-18 09:35N 38°28' E 014°58'0 0.0
2017-Jul-18 09:11N 38°28' E 014°58'0 0.1
2017-Jul-18 08:47N 38°28' E 014°58'0 0.0
2017-Jul-18 08:05N 38°28' E 014°58'0 0.1
2017-Jul-18 07:53N 38°28' E 014°58'0 0.0
2017-Jul-18 07:11N 38°28' E 014°58'0 0.0
2017-Jul-18 06:11N 38°28' E 014°58'0 0.0
2017-Jul-18 05:47N 38°28' E 014°58'0 1.5
2017-Jul-18 05:29N 38°28' E 014°58'4 6.7
2017-Jul-18 04:52N 38°32' E 015°00'7 8.0
2017-Jul-18 03:57N 38°39' E 015°01'117 3.5
2017-Jul-16 18:22N 40°29' E 014°07'5 9.5
2017-Jul-16 17:49N 40°33' E 014°11'2 0.1
2017-Jul-15 19:27N 40°34' E 014°14'612.6
2017-Jul-15 19:00N 40°40' E 014°15'714.2
2017-Jul-15 18:30N 40°47' E 014°16'10 0.2
2017-Jul-13 16:35N 40°36' E 014°17'111.6
2017-Jul-13 16:31N 40°37' E 014°17'4 8.8
2017-Jul-13 16:01N 40°39' E 014°22'0 0.6
2017-Jul-13 15:29N 40°38' E 014°23'0 0.0
2017-Jul-13 14:59N 40°38' E 014°23'0 0.0
2017-Jul-13 14:29N 40°38' E 014°23'0 0.0
2017-Jul-13 13:59N 40°38' E 014°23'0 0.0
2017-Jul-13 13:29N 40°38' E 014°23'0 0.0
2017-Jul-13 12:59N 40°38' E 014°23'0 0.0
2017-Jul-13 12:29N 40°38' E 014°23'0 0.1
2017-Jul-13 11:59N 40°38' E 014°23'0 0.0
2017-Jul-13 11:29N 40°38' E 014°23'0 0.0
2017-Jul-13 10:59N 40°38' E 014°23'0 0.0
2017-Jul-13 10:17N 40°38' E 014°23'0 0.0
2017-Jul-13 09:47N 40°38' E 014°23'0 0.0
2017-Jul-13 09:20N 40°38' E 014°23'0 0.0
2017-Jul-13 08:53N 40°38' E 014°23'0 0.0
2017-Jul-13 08:20N 40°38' E 014°23'0 0.0
2017-Jul-13 07:53N 40°38' E 014°23'0 0.1
2017-Jul-13 07:23N 40°38' E 014°23'0 0.0
2017-Jul-13 06:53N 40°38' E 014°23'0 0.0
2017-Jul-13 06:23N 40°38' E 014°23'0 0.0
2017-Jul-13 05:53N 40°38' E 014°23'0 0.0
2017-Jul-13 05:26N 40°38' E 014°23'45 6.4
2017-Jul-12 22:22N 40°42' E 013°23'10 6.2
2017-Jul-12 20:43N 40°49' E 013°13'1 5.4
2017-Jul-12 20:30N 40°50' E 013°12'4 4.7
2017-Jul-12 19:40N 40°53' E 013°09'67 3.3
2017-Jul-11 22:57N 41°39' E 012°03'  
Track history (hours):
 
Tides and Currents Weather Stations Pressure Air Temp Water Temp Dewpoint Dewpoint Depression Visibility Wind Speed Wind Dir Waves Ship Positions

Club Med II

Operator: V.Ships Leisure S.A.M

Last reported at 2017-Jul-21 02:30 UTC. Time now 2017-Jul-21 02:29 UTC.
Position N 36°20' E 014°38'.

Length 187 m; draft 5.2 m.

Type: Ship. MMSI: 227194000.

Date/timePositionNaut miles runAvg speedWind from/ knotsBaromVisibWave heightAir tempDewpointWater temp
2017-Jul-21 02:30N 36°20' E 014°38'511.1
2017-Jul-21 02:00N 36°23' E 014°44'611.1
2017-Jul-21 01:30N 36°26' E 014°50'511.0
2017-Jul-21 01:00N 36°29' E 014°56'610.8
2017-Jul-21 00:30N 36°32' E 015°01'510.9
2017-Jul-21 00:00N 36°35' E 015°07'811.4
2017-Jul-20 23:15N 36°41' E 015°15'311.7
2017-Jul-20 23:00N 36°44' E 015°17'55 2.0
2017-Jul-19 19:12N 37°38' E 015°28'1 5.9
2017-Jul-19 18:58N 37°39' E 015°27'3 5.8
2017-Jul-19 18:30N 37°41' E 015°25'3 5.7
2017-Jul-19 18:00N 37°43' E 015°23'20 1.4
2017-Jul-19 04:00N 38°02' E 015°30'510.7
2017-Jul-19 03:30N 38°07' E 015°33'5 9.7
2017-Jul-19 03:00N 38°11' E 015°36'510.0
2017-Jul-19 02:30N 38°15' E 015°39'5 9.6
2017-Jul-19 01:58N 38°21' E 015°39'4 8.7
2017-Jul-19 01:29N 38°24' E 015°36'4 8.9
2017-Jul-19 01:00N 38°28' E 015°34'5 9.8
2017-Jul-19 00:30N 38°33' E 015°31'5 9.9
2017-Jul-19 00:00N 38°37' E 015°28'8 9.9
2017-Jul-18 23:12N 38°44' E 015°23'21 3.1
2017-Jul-18 16:25N 38°32' E 015°01'510.6
2017-Jul-18 15:59N 38°28' E 014°58'0 0.3
2017-Jul-18 15:05N 38°28' E 014°58'0 0.1
2017-Jul-18 14:53N 38°28' E 014°58'0 0.0
2017-Jul-18 13:53N 38°28' E 014°58'0 0.0
2017-Jul-18 10:35N 38°28' E 014°58'0 0.0
2017-Jul-18 09:35N 38°28' E 014°58'0 0.0
2017-Jul-18 09:11N 38°28' E 014°58'0 0.1
2017-Jul-18 08:47N 38°28' E 014°58'0 0.0
2017-Jul-18 08:05N 38°28' E 014°58'0 0.1
2017-Jul-18 07:53N 38°28' E 014°58'0 0.0
2017-Jul-18 07:11N 38°28' E 014°58'0 0.0
2017-Jul-18 06:11N 38°28' E 014°58'0 0.0
2017-Jul-18 05:47N 38°28' E 014°58'0 1.5
2017-Jul-18 05:29N 38°28' E 014°58'4 6.7
2017-Jul-18 04:52N 38°32' E 015°00'7 8.0
2017-Jul-18 03:57N 38°39' E 015°01'117 3.5
2017-Jul-16 18:22N 40°29' E 014°07'5 9.5
2017-Jul-16 17:49N 40°33' E 014°11'2 0.1
2017-Jul-15 19:27N 40°34' E 014°14'612.6
2017-Jul-15 19:00N 40°40' E 014°15'714.2
2017-Jul-15 18:30N 40°47' E 014°16'10 0.2
2017-Jul-13 16:35N 40°36' E 014°17'111.6
2017-Jul-13 16:31N 40°37' E 014°17'4 8.8
2017-Jul-13 16:01N 40°39' E 014°22'0 0.6
2017-Jul-13 15:29N 40°38' E 014°23'0 0.0
2017-Jul-13 14:59N 40°38' E 014°23'0 0.0
2017-Jul-13 14:29N 40°38' E 014°23'0 0.0
2017-Jul-13 13:59N 40°38' E 014°23'0 0.0
2017-Jul-13 13:29N 40°38' E 014°23'0 0.0
2017-Jul-13 12:59N 40°38' E 014°23'0 0.0
2017-Jul-13 12:29N 40°38' E 014°23'0 0.1
2017-Jul-13 11:59N 40°38' E 014°23'0 0.0
2017-Jul-13 11:29N 40°38' E 014°23'0 0.0
2017-Jul-13 10:59N 40°38' E 014°23'0 0.0
2017-Jul-13 10:17N 40°38' E 014°23'0 0.0
2017-Jul-13 09:47N 40°38' E 014°23'0 0.0
2017-Jul-13 09:20N 40°38' E 014°23'0 0.0
2017-Jul-13 08:53N 40°38' E 014°23'0 0.0
2017-Jul-13 08:20N 40°38' E 014°23'0 0.0
2017-Jul-13 07:53N 40°38' E 014°23'0 0.1
2017-Jul-13 07:23N 40°38' E 014°23'0 0.0
2017-Jul-13 06:53N 40°38' E 014°23'0 0.0
2017-Jul-13 06:23N 40°38' E 014°23'0 0.0
2017-Jul-13 05:53N 40°38' E 014°23'0 0.0
2017-Jul-13 05:26N 40°38' E 014°23'45 6.4
2017-Jul-12 22:22N 40°42' E 013°23'10 6.2
2017-Jul-12 20:43N 40°49' E 013°13'1 5.4
2017-Jul-12 20:30N 40°50' E 013°12'4 4.7
2017-Jul-12 19:40N 40°53' E 013°09'67 3.3
2017-Jul-11 22:57N 41°39' E 012°03'  

Dump ship's entire track history